Lordsburg, NM

7:24 PM MDT on July 26, 2017 (GMT -0600)
Lordsburg

Weather History for KLSB - November, 2014

Change the Weather History Date:

Wednesday, November 5, 2014

  Actual Average Record
Temperature  
Mean Temperature 52 °F -  
Max Temperature 64 °F 72 °F 64 °F (2013)
Min Temperature 39 °F 32 °F 32 °F (2015)
Degree Days  
Heating Degree Days 14    
Growing Degree Days 2 (Base 50)    
Moisture  
Dew Point 35 °F    
Average Humidity 60    
Maximum Humidity 87    
Minimum Humidity 30    
Precipitation  
Precipitation 0.00 in - - ()
Sea Level Pressure  
Sea Level Pressure 30.24 in    
Wind  
Wind Speed 8 mph (SE)    
Max Wind Speed 17 mph    
Max Gust Speed 23 mph    
Visibility 10 miles    
Events      
Averages and records for this station are not official NWS values.
T = Trace of Precipitation, MM = Missing Value Source: NWS Daily Summary

Daily Weather History Graph

Daily Weather History Graph

Search for Another Location

Airport or City:

Trip Planner

Search our weather history database for the weather conditions in past years. The results will help you decide how hot, cold, wet, or windy it might be!

Date:

Astronomy

Nov. 05, 2014 Rise Set
Actual Time 6:38 AM MST 5:17 PM MST
Civil Twilight 6:12 AM MST 5:43 PM MST
Nautical Twilight 5:42 AM MST 6:13 PM MST
Astronomical Twilight 5:13 AM MST 6:43 PM MST
Moon 4:42 PM MST (11/5) 5:11 AM MST (11/5)
Length of Visible Light 11h 31m
Length of Day
10h 39m
Waxing Gibbous, 98% of the Moon is Illuminated
Nov 5
Waxing Gibbous
Nov 6
Full
Nov 14
Last Quarter
Nov 22
New
Nov 29
First Quarter

Hourly Weather History & Observations

Time (MST) Temp. Windchill Dew Point Humidity Pressure Visibility Wind Dir Wind Speed Gust Speed Precip Events Conditions
12:15 AM 42.8 °F 37.0 °F 35.6 °F 76% 30.21 in 10.0 mi SE 10.4 mph - N/A   Clear
12:35 AM 42.8 °F 37.0 °F 37.4 °F 81% 30.21 in 10.0 mi SSE 10.4 mph - N/A   Clear
12:55 AM 42.8 °F 37.0 °F 37.4 °F 81% 30.21 in 10.0 mi SSE 10.4 mph - N/A   Clear
1:15 AM 42.8 °F 37.5 °F 37.4 °F 81% 30.20 in 10.0 mi SSE 9.2 mph - N/A   Clear
1:35 AM 42.8 °F 37.0 °F 35.6 °F 76% 30.19 in 10.0 mi SSE 10.4 mph - N/A   Clear
1:55 AM 42.8 °F 37.5 °F 35.6 °F 76% 30.18 in 10.0 mi SSE 9.2 mph - N/A   Clear
2:15 AM 42.8 °F 37.0 °F 35.6 °F 76% 30.17 in 10.0 mi SSE 10.4 mph - N/A   Clear
2:35 AM 42.8 °F 37.0 °F 33.8 °F 70% 30.18 in 10.0 mi SSE 10.4 mph - N/A   Clear
2:55 AM 42.8 °F 36.6 °F 33.8 °F 70% 30.19 in 10.0 mi SSE 11.5 mph - N/A   Clear
3:15 AM 42.8 °F 37.5 °F 33.8 °F 70% 30.19 in 10.0 mi SSE 9.2 mph - N/A   Clear
3:35 AM 42.8 °F 40.1 °F 33.8 °F 70% 30.19 in 10.0 mi SSE 4.6 mph 9.2 mph N/A   Clear
3:55 AM 41.0 °F 35.8 °F 33.8 °F 76% 30.20 in 10.0 mi SSE 8.1 mph - N/A   Clear
4:15 AM 41.0 °F 38.0 °F 33.8 °F 76% 30.21 in 10.0 mi South 4.6 mph - N/A   Clear
4:35 AM 41.0 °F 36.4 °F 33.8 °F 76% 30.21 in 10.0 mi South 6.9 mph - N/A   Mostly Cloudy
4:55 AM 42.8 °F 37.5 °F 33.8 °F 70% 30.19 in 10.0 mi SSE 9.2 mph - N/A   Overcast
5:15 AM 41.0 °F 38.0 °F 33.8 °F 76% 30.21 in 10.0 mi SSE 4.6 mph - N/A   Mostly Cloudy
5:35 AM 42.8 °F 41.1 °F 33.8 °F 70% 30.21 in 10.0 mi South 3.5 mph - N/A   Overcast
5:55 AM 42.8 °F - 35.6 °F 76% 30.21 in 10.0 mi Calm Calm - N/A   Overcast
6:15 AM 41.0 °F - 35.6 °F 81% 30.21 in 10.0 mi Calm Calm - N/A   Overcast
6:35 AM 41.0 °F - 35.6 °F 81% 30.23 in 10.0 mi Calm Calm - N/A   Mostly Cloudy
6:55 AM 39.2 °F - 35.6 °F 87% 30.23 in 10.0 mi Calm Calm - N/A   Scattered Clouds
7:15 AM 42.8 °F - 33.8 °F 70% 30.24 in 10.0 mi Calm Calm - N/A   Clear
7:35 AM 42.8 °F 41.1 °F 33.8 °F 70% 30.25 in 10.0 mi SSE 3.5 mph - N/A   Clear
7:55 AM 42.8 °F 39.3 °F 33.8 °F 70% 30.25 in 10.0 mi South 5.8 mph - N/A   Scattered Clouds
8:15 AM 46.4 °F 42.4 °F 32.0 °F 57% 30.25 in 10.0 mi South 8.1 mph - N/A   Mostly Cloudy
8:35 AM 46.4 °F - 32.0 °F 57% 30.25 in 10.0 mi Calm Calm - N/A   Clear
8:55 AM 48.2 °F - 33.8 °F 58% 30.27 in 10.0 mi SE 3.5 mph - N/A   Clear
9:15 AM 50.0 °F - 33.8 °F 54% 30.26 in 10.0 mi SSE 3.5 mph - N/A   Clear
9:35 AM 50.0 °F - 33.8 °F 54% 30.26 in 10.0 mi SSE 4.6 mph - N/A   Clear
9:55 AM 51.8 °F - 33.8 °F 50% 30.26 in 10.0 mi SSE 8.1 mph - N/A   Clear
10:15 AM 53.6 °F - 33.8 °F 47% 30.25 in 10.0 mi SE 4.6 mph - N/A   Clear
10:35 AM 55.4 °F - 33.8 °F 44% 30.26 in 10.0 mi Calm Calm - N/A   Clear
10:55 AM 55.4 °F - 33.8 °F 44% 30.26 in 10.0 mi SE 3.5 mph - N/A   Clear
11:15 AM 59.0 °F - 33.8 °F 39% 30.24 in 10.0 mi South 6.9 mph - N/A   Clear
11:35 AM 60.8 °F - 33.8 °F 36% 30.24 in 10.0 mi ESE 12.7 mph 16.1 mph N/A   Clear
11:55 AM 62.6 °F - 33.8 °F 34% 30.23 in 10.0 mi ESE 13.8 mph 19.6 mph N/A   Clear
12:15 PM 60.8 °F - 33.8 °F 36% 30.21 in 10.0 mi East 10.4 mph 20.7 mph N/A   Clear
12:35 PM 62.6 °F - 32.0 °F 32% 30.20 in 10.0 mi East 12.7 mph 20.7 mph N/A   Clear
12:55 PM 62.6 °F - 32.0 °F 32% 30.20 in 10.0 mi SE 12.7 mph 21.9 mph N/A   Clear
1:15 PM 62.6 °F - 33.8 °F 34% 30.20 in 10.0 mi ESE 13.8 mph 23.0 mph N/A   Clear
1:35 PM 62.6 °F - 33.8 °F 34% 30.19 in 10.0 mi SE 15.0 mph 21.9 mph N/A   Clear
1:55 PM 62.6 °F - 33.8 °F 34% 30.19 in 10.0 mi SE 12.7 mph - N/A   Clear
2:15 PM 62.6 °F - 33.8 °F 34% 30.19 in 10.0 mi SE 17.3 mph 23.0 mph N/A   Clear
2:35 PM 62.6 °F - 32.0 °F 32% 30.19 in 10.0 mi ESE 16.1 mph 20.7 mph N/A   Clear
2:55 PM 64.4 °F - 32.0 °F 30% 30.19 in 10.0 mi SE 10.4 mph 18.4 mph N/A   Clear
3:15 PM 62.6 °F - 32.0 °F 32% 30.19 in 10.0 mi ESE 15.0 mph 20.7 mph N/A   Clear
3:35 PM 62.6 °F - 32.0 °F 32% 30.19 in 10.0 mi SE 13.8 mph 21.9 mph N/A   Clear
3:55 PM 62.6 °F - 32.0 °F 32% 30.19 in 10.0 mi ESE 15.0 mph 19.6 mph N/A   Clear
4:15 PM 62.6 °F - 32.0 °F 32% 30.20 in 10.0 mi ESE 11.5 mph 21.9 mph N/A   Clear
4:35 PM 60.8 °F - 32.0 °F 34% 30.21 in 10.0 mi ESE 12.7 mph - N/A   Clear
4:55 PM 60.8 °F - 32.0 °F 34% 30.21 in 10.0 mi ESE 11.5 mph - N/A   Scattered Clouds
5:15 PM 59.0 °F - 32.0 °F 36% 30.21 in 10.0 mi SE 9.2 mph - N/A   Clear
5:35 PM 57.2 °F - 32.0 °F 38% 30.22 in 10.0 mi SE 4.6 mph - N/A   Clear
5:55 PM 55.4 °F - 33.8 °F 44% 30.23 in 10.0 mi SSE 5.8 mph - N/A   Clear
6:15 PM 53.6 °F - 33.8 °F 47% 30.23 in 10.0 mi SE 8.1 mph - N/A   Clear
6:35 PM 53.6 °F - 37.4 °F 54% 30.24 in 10.0 mi SE 8.1 mph - N/A   Clear
6:55 PM 51.8 °F - 39.2 °F 62% 30.25 in 10.0 mi SE 9.2 mph - N/A   Clear
7:15 PM 51.8 °F - 39.2 °F 62% 30.25 in 10.0 mi ESE 6.9 mph - N/A   Clear
7:35 PM 50.0 °F - 41.0 °F 71% 30.27 in 10.0 mi ESE 6.9 mph - N/A   Clear
7:55 PM 50.0 °F - 41.0 °F 71% 30.28 in 10.0 mi ESE 6.9 mph - N/A   Scattered Clouds
8:15 PM 51.8 °F - 41.0 °F 67% 30.29 in 10.0 mi ESE 9.2 mph - N/A   Mostly Cloudy
8:35 PM 50.0 °F - 41.0 °F 71% 30.30 in 10.0 mi SE 10.4 mph - N/A   Scattered Clouds
8:55 PM 50.0 °F - 41.0 °F 71% 30.31 in 10.0 mi SE 8.1 mph - N/A   Clear
9:15 PM 50.0 °F - 41.0 °F 71% 30.31 in 10.0 mi SE 6.9 mph - N/A   Scattered Clouds
9:35 PM 46.4 °F 43.5 °F 41.0 °F 81% 30.32 in 10.0 mi ESE 5.8 mph - N/A   Scattered Clouds
9:55 PM 46.4 °F 44.3 °F 41.0 °F 81% 30.33 in 10.0 mi SSE 4.6 mph - N/A   Clear
10:15 PM 44.6 °F 41.4 °F 41.0 °F 87% 30.33 in 10.0 mi SSE 5.8 mph - N/A   Clear
10:35 PM 44.6 °F 41.4 °F 41.0 °F 87% 30.33 in 10.0 mi SSE 5.8 mph - N/A   Clear
10:55 PM 46.4 °F 42.9 °F 41.0 °F 81% 30.34 in 10.0 mi SE 6.9 mph - N/A   Clear
11:15 PM 44.6 °F 39.7 °F 41.0 °F 87% 30.35 in 10.0 mi ESE 9.2 mph - N/A   Clear
11:35 PM 44.6 °F 40.7 °F 41.0 °F 87% 30.35 in 10.0 mi ESE 6.9 mph - N/A   Clear
11:55 PM 44.6 °F 41.4 °F 41.0 °F 87% 30.35 in 10.0 mi SE 5.8 mph - N/A   Clear